Weather History for KGKJ - December, 2013

Change the Weather History Date:

Monday, December 9, 2013

  Actual Average Record
Temperature  
Mean Temperature 31 °F -  
Max Temperature 35 °F 40 °F 65 °F (1966)
Min Temperature 26 °F 25 °F 2 °F (1977)
Degree Days  
Heating Degree Days 34    
Moisture  
Dew Point 27 °F    
Average Humidity 86    
Maximum Humidity 100    
Minimum Humidity 69    
Precipitation  
Precipitation 0.11 in - - ()
Sea Level Pressure  
Sea Level Pressure 29.97 in    
Wind  
Wind Speed 8 mph (SW)    
Max Wind Speed 16 mph    
Max Gust Speed 29 mph    
Visibility 7 miles    
Events Rain    
Averages and records for this station are not official NWS values.
T = Trace of Precipitation, MM = Missing Value Source: NWS Daily Summary

Daily Weather History Graph

Daily Weather History Graph

Search for Another Location

Airport or City:

Trip Planner

Search our weather history database for the weather conditions in past years. The results will help you decide how hot, cold, wet, or windy it might be!

Date:

Astronomy

Dec. 09, 2013 Rise Set
Actual Time 7:36 AM EST 4:50 PM EST
Civil Twilight 7:04 AM EST 5:21 PM EST
Nautical Twilight 6:29 AM EST 5:56 PM EST
Astronomical Twilight 5:56 AM EST 6:30 PM EST
Moon 12:23 PM EST (12/9) No Moon Set
Length of Visible Light 10h 17m
Length of Day
9h 14m
Waxing Crescent, 51% of the Moon is Illuminated
Dec 9
Waxing Crescent
Dec 17
Full
Dec 25
Last Quarter
Jan 1
New
Jan 7
First Quarter

Hourly Weather History & Observations

Time (EST) Temp. Windchill Dew Point Humidity Pressure Visibility Wind Dir Wind Speed Gust Speed Precip Events Conditions
12:53 AM 27.0 °F 20.5 °F 25.0 °F 92% 30.03 in 10.0 mi SE 5.8 mph - N/A   Overcast
1:25 AM 28.4 °F 23.3 °F 26.6 °F 93% 29.96 in 3.0 mi Variable 4.6 mph - N/A   Overcast
1:33 AM 28.4 °F 21.2 °F 26.6 °F 93% 29.95 in 2.0 mi Variable 6.9 mph - N/A   Overcast
1:41 AM 28.4 °F 22.2 °F 26.6 °F 93% 29.95 in 2.0 mi Variable 5.8 mph - 0.00 in Rain Light Freezing Rain
1:53 AM 28.0 °F 21.7 °F 26.1 °F 92% 29.99 in 2.5 mi Variable 5.8 mph - 0.00 in Rain Light Freezing Rain
2:03 AM 28.4 °F 21.2 °F 26.6 °F 93% 29.93 in 3.0 mi SSE 6.9 mph - 0.00 in Rain Light Freezing Rain
2:45 AM 28.4 °F 23.3 °F 26.6 °F 93% 29.92 in 4.0 mi Variable 4.6 mph - 0.00 in   Overcast
2:53 AM 30.0 °F 24.1 °F 28.0 °F 92% 29.96 in 4.0 mi Variable 5.8 mph - 0.00 in   Overcast
3:09 AM 30.2 °F 24.3 °F 28.4 °F 93% 29.91 in 3.0 mi Variable 5.8 mph - 0.00 in Rain Light Freezing Rain
3:53 AM 32.0 °F 26.4 °F 30.0 °F 92% 29.92 in 4.0 mi Variable 5.8 mph - 0.00 in Rain Light Freezing Rain
4:19 AM 32.0 °F 26.4 °F 30.2 °F 93% 29.88 in 2.5 mi Variable 5.8 mph - 0.00 in Rain Light Freezing Rain
4:49 AM 33.8 °F 27.0 °F 30.2 °F 87% 29.88 in 2.0 mi South 8.1 mph - 0.00 in Rain Light Freezing Rain
4:53 AM 33.1 °F 27.7 °F 30.9 °F 92% 29.93 in 2.0 mi Variable 5.8 mph - 0.00 in Rain Light Freezing Rain
5:05 AM 33.8 °F 27.7 °F 30.2 °F 87% 29.88 in 1.8 mi South 6.9 mph - 0.00 in Rain Light Rain
5:53 AM 34.0 °F 27.2 °F 32.0 °F 92% 29.93 in 1.5 mi South 8.1 mph - 0.00 in   Overcast
6:06 AM 33.8 °F 27.7 °F 33.8 °F 100% 29.88 in 2.5 mi South 6.9 mph - N/A   Overcast
6:29 AM 33.8 °F 26.4 °F 33.8 °F 100% 29.89 in 3.0 mi SSW 9.2 mph 17.3 mph 0.00 in   Overcast
6:53 AM 35.1 °F 27.9 °F 33.1 °F 92% 29.94 in 7.0 mi SSW 9.2 mph 18.4 mph 0.00 in   Overcast
7:49 AM 33.8 °F 25.8 °F 33.8 °F 100% 29.90 in 10.0 mi SSW 10.4 mph 17.3 mph N/A   Overcast
7:53 AM 34.0 °F 26.0 °F 33.1 °F 96% 29.94 in 10.0 mi SSW 10.4 mph 17.3 mph N/A   Overcast
8:30 AM 33.8 °F 25.8 °F 33.8 °F 100% 29.90 in 10.0 mi SSW 10.4 mph - N/A   Overcast
8:53 AM 34.0 °F 27.2 °F 32.0 °F 92% 29.96 in 10.0 mi SW 8.1 mph 16.1 mph N/A   Overcast
9:53 AM 34.0 °F 26.6 °F 32.0 °F 92% 29.98 in 10.0 mi SW 9.2 mph - 0.01 in   Overcast
10:53 AM 34.0 °F 24.6 °F 30.9 °F 89% 29.99 in 10.0 mi SW 13.8 mph 25.3 mph 0.01 in   Overcast
11:53 AM 34.0 °F 25.5 °F 28.0 °F 79% 29.99 in 10.0 mi WSW 11.5 mph 26.5 mph 0.02 in   Overcast
12:04 PM 33.8 °F 23.9 °F 28.4 °F 81% 29.96 in 10.0 mi WSW 15.0 mph 20.7 mph N/A   Overcast
12:53 PM 32.0 °F 21.2 °F 26.1 °F 79% 30.01 in 10.0 mi WSW 16.1 mph 28.8 mph 0.02 in   Overcast
1:53 PM 32.0 °F 22.1 °F 23.0 °F 69% 30.01 in 10.0 mi WSW 13.8 mph 24.2 mph 0.01 in   Overcast
2:53 PM 30.9 °F 22.2 °F 23.0 °F 72% 30.00 in 10.0 mi WSW 10.4 mph 19.6 mph 0.04 in   Overcast
3:53 PM 30.9 °F 24.3 °F 21.9 °F 69% 30.03 in 10.0 mi SW 6.9 mph 17.3 mph N/A   Overcast
4:53 PM 30.0 °F 20.0 °F 21.0 °F 69% 30.05 in 10.0 mi WSW 12.7 mph 25.3 mph N/A   Overcast
5:53 PM 30.0 °F 19.1 °F 21.0 °F 69% 30.08 in 10.0 mi WSW 15.0 mph 20.7 mph N/A   Overcast
6:53 PM 28.9 °F 19.8 °F 21.0 °F 72% 30.09 in 10.0 mi WSW 10.4 mph 17.3 mph N/A   Overcast
7:53 PM 28.9 °F 19.2 °F 19.9 °F 69% 30.09 in 10.0 mi WSW 11.5 mph 17.3 mph N/A   Overcast
8:53 PM 28.0 °F 17.0 °F 19.9 °F 72% 30.09 in 10.0 mi WSW 13.8 mph 20.7 mph N/A   Overcast
9:53 PM 27.0 °F 17.3 °F 19.9 °F 75% 30.08 in 10.0 mi WSW 10.4 mph - N/A   Overcast
10:53 PM 27.0 °F 16.7 °F 18.0 °F 69% 30.07 in 10.0 mi WSW 11.5 mph 19.6 mph N/A   Mostly Cloudy
11:53 PM 26.1 °F 19.4 °F 17.1 °F 69% 30.08 in 10.0 mi WSW 5.8 mph - N/A   Overcast